Location: Prague
(50.0830°N, 14.4670°E)
Time: 20:33:21
(UTC+01:00)

FO-29 - Pass Details

Date: 14 December 2021
Orbit: 801 x 1321 km, 98.5° (Epoch: 19 January)

Event Time Altitude Azimuth Distance (km) Brightness Sun altitude
Exits shadow 18:42:03 10° 6° (N) 2,442 11.5 -24.7°
Drops below altitude 10° 18:42:04 10° 6° (N) 2,450 11.5 -24.7°
Sets 18:44:53 0° 353° (N) 3,439 12.4 -25.2°
